Starlink 5201

operational
NORAD ID: 54076 Int'l Des: 2022-136 Owner: SPXS Country: US Constellation: starlink
LEOCIRCULAR

Starlink 5201について

説明を読み込み中...

リアルタイム位置

3D地球を読み込み中...

次回通過

高度履歴

Altitude vs Time

uPlot chart will show altitude changes over time

軌道要素

1 54076U 22136AB 25308.38164709 -.00000210 00000-0 48905-5 0 9997
2 54076 53.2153 186.8527 0001305 79.6169 280.4970 15.08826373167925
Epoch: Nov 4, 2025 • Age: 8 hours

現在のステータス

高度 544.1 km
速度 7.60 km/s
衛星直下点 46.79°N, 4.51°E
打ち上げ日 Oct 20, 2022
運用期間 3 years
タイプ internet

技術仕様

分類 Payload
質量 305.00 kg
乾燥質量 290.00 kg
総質量 305.00 kg
長さ 0.20 m
直径 2.80 m
スパン 9.00 m
形状 Box + pan
製造者 SPXS
バスタイプ Starlink
フェーズステータス In Orbit
所有者/国 SPXS/US

大規模コンステレーション

Loading constellations...